Location: Little Baddow
(51.7333°N, 0.5667°E)
Time: 08:32:52
(UTC+00:00)

COSMOS 2428 - Pass Details

Date: 15 February 2026
Orbit: 843 x 856 km, 70.9° (Epoch: 6 March)

Event Time Altitude Azimuth Distance (km) Brightness Sun altitude
Rises 17:59:12 0° 325° (NW) 3,438 6.2 -7.8°
Reaches altitude 10° 18:01:48 10° 318° (NW) 2,498 5.6 -8.2°
Maximum altitude 18:07:02 38° 252° (WSW) 1,291 4.4 -9.0°
Drops below altitude 10° 18:12:14 10° 186° (S) 2,482 5.3 -9.8°
Sets 18:14:50 0° 179° (S) 3,413 5.9 -10.2°
